Regional Weather Roundup
Issued by NWS Sterling, VA

Home | Current Version | Previous Version | Text Only | Print | Product List | Glossary Off
Versions: 1 2 3 4 5 6 7 8 9 10 11 12 13 14 15 16 17 18 19 20 21 22 23 24 25 26 27 28 29 30 31 32 33 34 35 36 37 38 39 40 41 42 43 44 45 46 47 48 49 50

010
ASUS41 KLWX 201011
RWRLWX

REGIONAL WEATHER ROUNDUP
NATIONAL WEATHER SERVICE BALTIMORE MD/WASHINGTON DC
600 AM EDT WED SEP 20 2017

Note: "FAIR" indicates few or no clouds below 12,000 feet
with no significant weather and/or obstructions to visibility.
 TC=TEMPERATURE CELSIUS

 * =Non NWS site. Station does not report precipitation (e.g. rain,
    snow, etc.), thunder, or fog.

DCZ001-MDZ009-015-VAZ040>042-051-053>054-201100-
WASHINGTON METRO

CITY           SKY/WX    TMP DP  RH WIND       PRES   REMARKS
WASHINGTON NAT MOCLDY    72  64  76 NW12      29.92R
DULLES         PTCLDY    65  63  93 NW3       29.94S
ANDREWS AFB    PTCLDY    70  63  76 NW8       29.91R
FT BELVOIR     CLEAR     68  62  82 NW5       29.92S
QUANTICO       CLEAR     67  65  93 NW6       29.93S
COLLEGE PARK*  CLOUDY    70  63  77 NW3       29.91R
LEESBURG*      CLEAR     64  64 100 NW6       29.95S
MANASSAS*      CLEAR     60  59  96 CALM      29.94S
GAITHERSBURG*  CLOUDY    66  63  90 CALM      29.95R

$$

MDZ006>007-011-014-201100-
BALTIMORE METRO

CITY           SKY/WX    TMP DP  RH WIND       PRES   REMARKS
BWI AIRPORT    CLOUDY    70  65  84 NW7       29.91R
MD SCIENCE CTR   N/A     75  63  66 MISG      29.91R
MARTIN STATE   MOCLDY    73  66  78 NW8       29.91R
ANNAPOLIS      MOCLDY    76  67  73 NW7       29.90R
FORT MEADE*    CLOUDY    68  63  83 NW3       29.93S

$$

MDZ012-015-019>023-201100-
MARYLAND EASTERN SHORE

CITY           SKY/WX    TMP DP  RH WIND       PRES   REMARKS
OCEAN CITY     CLOUDY    69  67  93 NW12G20   29.84R
SALISBURY      MOCLDY    69  67  93 NW12      29.86R
CAMBRIDGE*     MOCLDY    72  66  83 NW6       29.87S
EASTON*        CLEAR     72  64  78 NW5       29.92R

$$

MDZ017>025-201100-
SOUTHERN MARYLAND

CITY           SKY/WX    TMP DP  RH WIND       PRES   REMARKS
PATUXENT RIVER PTCLDY    70  66  87 NW9       29.89R
ST INIGOES     PTCLDY    70  65  84 NW5       29.89R
LEONARDTOWN*   MOCLDY    66  63  88 W3        29.92R

$$

MDZ003>005-201100-
NORTH CENTRAL MARYLAND

CITY           SKY/WX    TMP DP  RH WIND       PRES   REMARKS
FREDERICK*     PTCLDY    63  63 100 CALM      29.97R FOG
HAGERSTOWN APT FOG       61  60  97 E3        29.97R VSB 1/4
WESTMINSTER*   MOCLDY    68  63  83 NW3       29.95S

$$

MDZ501>502-201100-
WESTERN MARYLAND

CITY           SKY/WX    TMP DP  RH WIND       PRES   REMARKS
OAKLAND*       CLEAR     61  57  88 CALM      30.04S
CUMBERLAND*    CLEAR     59  59 100 NE3       30.04S

$$

VAZ025>031-201100-
SHENANDOAH VALLEY

CITY           SKY/WX    TMP DP  RH WIND       PRES   REMARKS
WINCHESTER*    CLEAR     57  57 100 CALM      29.98R
FRONT ROYAL*   CLEAR     61  61 100 S3        29.97S
LURAY*         CLEAR     57  57 100 CALM      30.00R
NEW MARKET*    PTCLDY    56  55  96 CALM      30.00R
STAUNTON*      FOG       55  55  99 CALM      30.03S VSB 1/2
WAYNESBORO*    CLEAR     58  58 100 SW5       30.02R

$$

WVZ021-048>050-054>055-201100-
EASTERN WEST VIRGINIA PANHANDLE

CITY           SKY/WX    TMP DP  RH WIND       PRES   REMARKS
MARTINSBURG    CLEAR     56  55  97 CALM      29.96S FOG
PETERSBURG*    FOG       60  60  99 CALM      30.02R VSB 1/4

$$

VAZ036>039-050-201100-
CENTRAL FOOTHILLS

CITY           SKY/WX    TMP DP  RH WIND       PRES   REMARKS
CHARLOTTESVILL CLEAR     64  62  93 CALM      29.97R
CULPEPER*      CLEAR     64  62  93 CALM      29.96S
ORANGE*        CLEAR     59  59 100 CALM      29.95S
GORDONSVILLE*  CLEAR     59  59 100 CALM      29.95S
WARRENTON*     CLEAR     57  54  90 CALM      29.94R

$$

VAZ055>057-201100-
NORTH AND CENTRAL PIEDMONT

CITY           SKY/WX    TMP DP  RH WIND       PRES   REMARKS
FREDERICKSBRG* CLEAR     64  64 100 CALM      29.92S
STAFFORD*      CLEAR     63  63 100 CALM      29.97S

$$

NCZ024-NYZ072-PAZ021-071-VAZ022-071-201100-
OTHER REGIONAL OBSERVATIONS

CITY           SKY/WX    TMP DP  RH WIND       PRES   REMARKS
NEW YORK CITY  CLOUDY    71  63  75 VRB7      29.85S
PHILADELPHIA   PTCLDY    71  62  73 N13       29.86R
PITTSBURGH     PTCLDY    63  62  97 CALM      30.00R
ROANOKE        PTCLDY    66  63  90 NE5       30.03R
RICHMOND       CLEAR     66  63  90 NW6       29.93R
RALEIGH        PTCLDY    63  63 100 CALM      29.98R

$$

ANZ530>537-201100-
MARINE OBSERVATIONS

STATION/POSITION TIME  TEMP    WIND        PRES
                       AIR SEA DIR/SP/G
                 (UTC) (F)     (DEG/KT/KT) (MB)
THOMAS PT LIGHT  1000   73 75  320/  9/ 10   N/A
BALT KEY BRIDGE  0948   74     330/ 11/ 12 1012.3R
COVE POINT       0948   73     340/ 14/ 19 1012.7R
LEWISETTA        0948   72 75  320/  7/  8 1012.2R
SOLOMONS ISLAND  0948   71 76  300/  5/  8 1012.0R
PINEY POINT      0936          340/ 14/ 15   N/A

$$





USA.gov is the U.S. government's official web portal to all federal, state and local government web resources and services.